Aérodrome :
LOGIN :

S'inscrire | Disclaimer

   EN    FR    IT 

 










Légende :    VFR   VFR Marginal   IFR   IFR Intensif   IFR Très Intensif
Visi : 
Plafond : 
>= 8 km
>= 3000ft
5 à 8 km
1000 à 3000 ft
1500m à 5 km
500 à 1000 ft
800 à 1500m
200 à 500 ft
< 800m
< 200 ft
Symboles :   Orages  Brouillard  Fortes neiges  Fortes précipitations  Vent > 20 kt
SIGMETs :   Divers  Orages  Givrage  Turbulence  Onde Orograph.  Cendres Volcan.






- Altitude de l'aérodrome : 151 ft
- Code IATA : PES


ULPB - Petrozavodsk

DERNIER METAR :
  • 260300Z AUTO 14003MPS 040V210 9000 -SN ///013/// M00/M02 Q1010 RMK QFE753/1005

METARs EXPIRÉS :
  • 260200Z AUTO 15003MPS 9999 // ///014/// M01/M03 Q1011 RMK QFE754/1006
  • 260100Z AUTO 13003MPS 100V220 9999 // ///012/// M01/M03 Q1011 RMK QFE755/1006

TAF TAF ULPB
Valide du 26 à 03h jusqu'au 26 à 12h UTC


260153Z 2603/2612 18003G08MPS 6000 BKN011
TEMPO 2603/2609 0500 +SHSN BKN003 BKN015CB



MET'MAP, la Météo Aéronautique d'un coup d'oeil ! - Copyright ORBIFLY Décembre 2007 - Disclaimer

ORBIFLY MET'MAP TEAM :

Programmation & Développement : Alexandra Zaïnal
Sur une idée originale de : Baudouin d'Aumeries
Assistance à la programmation : Marc-Olivier Méhu
Soutien technique & logistique : Manuel Goepfert

Contact : metmap@orbifly.com




SOURCES & CREDITS :

   NOAA